Regional Weather Roundup
Issued by NWS

Home | Current Version | Previous Version | Graphics & Text | Print | Product List | Glossary On
Versions: 1 2 3 4 5 6 7 8 9 10 11 12 13 14 15 16 17 18 19 20 21 22 23 24 25 26 27 28 29 30 31 32 33 34 35 36 37 38 39 40 41 42 43 44 45 46 47 48 49 50
000
ASUS43 KDMX 022007
RWRIA

WEATHER ROUNDUP FOR IOWA
NATIONAL WEATHER SERVICE DES MOINES IA
300 PM CDT SAT MAY 02 2015

NOTE: "FAIR" INDICATES FEW OR NO CLOUDS BELOW 12,000 FEET WITH NO
SIGNIFICANT WEATHER AND/OR OBSTRUCTIONS TO VISIBILITY.

* - THESE STATIONS ARE NOT NWS STATIONS...THUS NOT UNDER NWS
QUALITY CONTROL.  THEY ALSO DO NOT REPORT WEATHER SUCH
AS PRECIPITATION OR FOG.

IAZ001>003-012>014-020>022-031>034-043>046-022100-
   NORTHWEST IOWA

CITY           SKY/WX    TMP DP  RH WIND       PRES   REMARKS
CARROLL *      MOSUNNY   70  54  56 S30G43    29.86F
CHEROKEE *     SUNNY     73  54  49 S17G25    29.84F
DENISON *      PTSUNNY   70  59  68 S26G35    29.85S
LE MARS *      SUNNY     77  55  47 S21G29    29.83F
ORANGE CITY *  SUNNY     75  54  46 S23       29.83F
SHELDON *      SUNNY     77  52  41 S22G30    29.81F
SIOUX CITY     SUNNY     76  53  44 S18       29.83F
SPENCER        PTSUNNY   79  52  38 S28G35    29.84F
STORM LAKE *   SUNNY     75  50  41 S29       29.86F
$$

IAZ055>058-069>071-079>083-090>094-022100-
   SOUTHWEST IOWA

CITY           SKY/WX    TMP DP  RH WIND       PRES   REMARKS
ATLANTIC *     SUNNY     66  55  68 S17G28    29.92F
AUDUBON *      MOSUNNY   64  57  77 S20G29    29.91F
CLARINDA *     SUNNY     63  55  77 S13G21    29.94F
COUNCIL BLFS * SUNNY     68  59  73 S18G25    29.88F
CRESTON *      CLOUDY    57  55  94 SE12      29.97F
HARLAN  *      SUNNY     70  59  68 S20G33    29.92F
LAMONI         LGT RAIN  56  52  86 SE10      29.98F
RED OAK *      MOSUNNY   66  55  68 S21G29    29.92F
SHENANDOAH *   SUNNY     68  57  68 S16G23    29.92F
$$

IAZ047>049-059>061-072>074-084-022100-
   CENTRAL IOWA

CITY           SKY/WX    TMP DP  RH WIND       PRES   REMARKS
AMES           CLOUDY    66  53  63 SW10      29.93F
ANKENY *       SUNNY     66  55  68 SW8G15    29.92R
CHARITON *     LGT RAIN  59  55  88 S18       29.98F
DES MOINES     CLOUDY    65  54  67 S23G30    29.91F
GRINNELL*      CLOUDY    66  50  55 S18       29.96F
KNOXVILLE *    SUNNY     63  54  72 SW17G25   29.97F
MARSHALLTOWN   CLOUDY    67  51  56 SW13      29.93F
PELLA *        CLOUDY    64  55  72 S13       29.99F
PERRY *          N/A     68  55  64 S22G30    29.89F
$$

IAZ004>006-015-016-023>025-035-036-022100-
   NORTH CENTRAL IOWA

CITY           SKY/WX    TMP DP  RH WIND       PRES   REMARKS
ALGONA *       MOSUNNY   77  52  41 SW24G32   29.85F
CLARION *      PTSUNNY   75  50  41 SW22G31   29.88F
ESTHERVILLE    MOSUNNY   77  48  35 SW21G26   29.82F
FORT DODGE *   MOSUNNY   73  52  46 SW16G23   29.89F
MASON CITY     MOSUNNY   77  51  40 SW21G29   29.88F
FOREST CITY *  MOSUNNY   73  50  43 S21G28    29.86S
IOWA FALLS *   CLOUDY    72  52  49 SW20      29.93S
$$

IAZ007>011-017>019-026>030-037>042-050>054-066-022100-
   NORTHEAST IOWA

CITY           SKY/WX    TMP DP  RH WIND       PRES   REMARKS
CEDAR RAPIDS   PTSUNNY   75  46  35 SW22G31   29.97F
CHARLES CITY * MOSUNNY   75  50  41 SW16G29   29.89F
CLINTON *        N/A     73  43  33 S12       30.00F
DECORAH *      MOSUNNY   75  43  31 S17G29    29.89F
DUBUQUE        PTSUNNY   75  43  31 SW21G28   29.95F
MONTICELLO *   SUNNY     75  37  25 SW20G31   29.95F
OELWEIN *      PTSUNNY   75  50  41 SW25G33   29.93S
WATERLOO       PTSUNNY   72  49  44 SW15G29   29.92S
$$

IAZ064-065-067-068-078-022100-
   EAST CENTRAL IOWA

CITY           SKY/WX    TMP DP  RH WIND       PRES   REMARKS
DAVENPORT      CLOUDY    76  38  25 S16       29.98F
IOWA CITY      PTSUNNY   74  44  34 SW16      29.99F
MT. PLEASANT * CLOUDY    72  39  30 SW16      30.00F
MUSCATINE *    PTSUNNY   75  41  29 SW17      29.99S
QUAD CITIES    CLOUDY    76  39  26 SW12      29.97F
$$

IAZ062-063-075>077-085>089-095>099-022100-
   SOUTHEAST IOWA

CITY           SKY/WX    TMP DP  RH WIND       PRES   REMARKS
BURLINGTON     CLOUDY    74  39  28 SW16      30.00F
FAIRFIELD *    CLOUDY    66  48  52 SW14      30.01S
FORT MADISON * SUNNY     73  39  29 SW8       30.02F
KEOKUK *       MOSUNNY   72  43  35 SW10      30.01F
OSKALOOSA *    PTSUNNY   66  52  59 SW18G26   30.01S
CENTERVILLE *  PTSUNNY   57  57 100 S12       30.03F
OTTUMWA        CLOUDY    65  52  62 SW10      30.01S
WASHINGTON *   PTSUNNY   73  45  35 SW18      30.00S
$$

ABBREVIATIONS USED IN REMARKS
   TC - TEMPERATURES IN CELSIUS
  WCI - WIND CHILL INDEX
   HX - HEAT INDEX
  VSB - VISIBILITY
$$




USA.gov is the U.S. government's official web portal to all federal, state and local government web resources and services.